TimeEST,TemperatureF,Dew PointF,Humidity,Sea Level PressureIn,VisibilityMPH,Wind Direction,Wind SpeedMPH,Gust SpeedMPH,PrecipitationIn,Events,Conditions,WindDirDegrees,DateUTC
12:53 AM,39.0,30.0,70,30.22,10.0,ENE,3.5,-,N/A,,Clear,60,2012-12-15 05:53:00
1:53 AM,37.9,32.0,79,30.21,10.0,Calm,Calm,-,N/A,,Clear,0,2012-12-15 06:53:00
2:53 AM,37.9,30.9,76,30.21,10.0,Calm,Calm,-,N/A,,Clear,0,2012-12-15 07:53:00
3:53 AM,39.0,32.0,76,30.19,10.0,NE,4.6,-,N/A,,Clear,50,2012-12-15 08:53:00
4:53 AM,37.0,32.0,82,30.19,10.0,Calm,Calm,-,N/A,,Clear,0,2012-12-15 09:53:00
5:53 AM,37.9,33.1,83,30.21,10.0,Calm,Calm,-,N/A,,Clear,0,2012-12-15 10:53:00
6:53 AM,39.0,34.0,82,30.20,10.0,Calm,Calm,-,N/A,,Clear,0,2012-12-15 11:53:00
7:53 AM,39.9,33.1,77,30.22,10.0,NNE,4.6,-,N/A,,Clear,30,2012-12-15 12:53:00
8:53 AM,42.8,33.8,70,30.23,10.0,Calm,Calm,-,N/A,,Clear,0,2012-12-15 13:53:00
9:53 AM,45.0,34.0,65,30.24,10.0,SSE,3.5,-,N/A,,Clear,160,2012-12-15 14:53:00
10:53 AM,48.9,35.1,59,30.22,10.0,Calm,Calm,-,N/A,,Clear,0,2012-12-15 15:53:00
11:53 AM,54.0,33.1,45,30.20,10.0,South,5.8,-,N/A,,Scattered Clouds,190,2012-12-15 16:53:00
12:53 PM,57.9,33.1,39,30.16,10.0,Calm,Calm,-,N/A,,Clear,0,2012-12-15 17:53:00
1:53 PM,57.9,32.0,37,30.13,10.0,South,4.6,-,N/A,,Clear,190,2012-12-15 18:53:00
2:53 PM,59.0,34.0,39,30.11,10.0,Variable,4.6,-,N/A,,Mostly Cloudy,0,2012-12-15 19:53:00
3:53 PM,59.0,35.1,41,30.10,10.0,South,6.9,-,N/A,,Mostly Cloudy,180,2012-12-15 20:53:00
4:53 PM,57.0,36.0,45,30.11,10.0,South,5.8,-,N/A,,Mostly Cloudy,180,2012-12-15 21:53:00
5:53 PM,54.0,36.0,51,30.10,10.0,South,4.6,-,N/A,,Mostly Cloudy,180,2012-12-15 22:53:00
6:53 PM,52.0,37.0,57,30.12,10.0,South,5.8,-,N/A,,Mostly Cloudy,170,2012-12-15 23:53:00
7:53 PM,52.0,37.0,57,30.11,10.0,South,4.6,-,N/A,,Overcast,190,2012-12-16 00:53:00
8:53 PM,52.0,37.9,59,30.11,10.0,South,6.9,-,N/A,,Overcast,190,2012-12-16 01:53:00
9:53 PM,52.0,37.9,59,30.09,10.0,Calm,Calm,-,N/A,,Overcast,0,2012-12-16 02:53:00
10:53 PM,51.1,39.0,63,30.08,10.0,WSW,3.5,-,N/A,,Mostly Cloudy,240,2012-12-16 03:53:00
11:53 PM,52.0,39.0,61,30.06,10.0,SSW,3.5,-,N/A,,Mostly Cloudy,210,2012-12-16 04:53:00